Terug naar catalogus

COSMOS 2023

GLONASS

ActiefNavigatieMEO
NORAD 20025·PAYLOAD·🇷🇺 Russia

Gelanceerd May 31, 1989 vanaf Baikonur Cosmodrome

Loading…

Volgende Passages (komende 24 uur)

TLE

VersSource: Space-Track

Epoch: Sep 14, 2026, 19:05 UTC

1 20025U 89039B   26257.79564103 -.00000049  00000-0  00000-0 0  9999
2 20025  64.9018 308.0959 0021593 199.7704 160.5722  2.13104152290171

Volg COSMOS 2023 in realtime met AllMySat

Download on the App Store